Flag for Niger Weather past 2 weeks in Niamey, Niger

Now
75 °F

Duststorm.


Feels Like: 76 °F
Forecast: 74 / 100 °F
Wind: 10 mph from East

Location: Niamey-Aero

Current Time: Mar 5, 2015 at 8:41:21 AM

Latest Report: Mar 5, 2015 at 8:00 AM


Visibility: 1 mi

Pressure: 29.95 "Hg

Humidity: 21%

Dew point: 32 °F

Location of NiameyLocation

Historic Weather in Niamey — Graph

°F

Niamey temperature yesterday

Maximum temperature yesterday: 95 °F (at 3:00 PM)
Minimum temperature yesterday: 73 °F (at 6:00 AM)
Average temperature yesterday: 83 °F

Past Weeks' High & Low Weather Summary

 TemperatureHumidityPressure
High102 °F (Feb 19, 4:00 PM)73% (Feb 21, 9:00 AM)30.04 "Hg (Feb 21, 9:00 AM)
Low66 °F (Feb 23, 8:00 AM)4% (Feb 27, 5:00 PM)29.68 "Hg (Feb 20, 4:00 PM)
Average82 °F15%29.89 "Hg
* Reported Feb 18 7:00 AM — Mar 5 7:00 AM, Niamey, Weather by CustomWeather, © 2015

Note: Actual official high and low records may vary slightly from our data, if they occured in-between our weather recording intervals... More about our weather records

Advertising

Niamey weather history for previous 24 hours

 ConditionsComfort  
Time TempWeatherWind HumidityBarometerVisibility
7:00 AM
Thu, Mar 5
75 °FDuststorm.9 mph21%29.92 "Hg1 mi
6:00 AM75 °FDuststorm.8 mph21%29.89 "Hg2 mi
5:00 AM77 °FDuststorm.8 mph18%29.89 "Hg2 mi
4:00 AM79 °FDuststorm.7 mph16%29.89 "Hg2 mi
3:00 AM81 °FClear.8 mph15%29.92 "Hg4 mi
2:00 AM79 °FClear.6 mph15%29.92 "Hg4 mi
1:00 AM79 °FClear.6 mph15%29.95 "Hg4 mi
12:00 AM81 °FClear.6 mph13%29.95 "Hg4 mi
11:00 PM
Wed, Mar 4
82 °FDuststorm.6 mph13%29.95 "Hg3 mi
10:00 PM82 °FDuststorm.6 mph12%29.92 "Hg2 mi
9:00 PM84 °FDuststorm.5 mph11%29.92 "Hg2 mi
8:00 PM88 °FDuststorm.5 mph10%29.89 "Hg2 mi
7:00 PM91 °FDuststorm.7 mph8%29.86 "Hg2 mi
6:00 PM93 °FClear.12 mph7%29.86 "Hg4 mi
5:00 PM95 °FClear.13 mph7%29.86 "Hg4 mi
4:00 PM95 °FClear.13 mph7%29.86 "Hg4 mi
3:00 PM95 °FDuststorm.14 mph7%29.89 "Hg3 mi
2:00 PM93 °FDuststorm.13 mph8%29.92 "Hg3 mi
1:00 PM90 °FDuststorm.16 mph9%29.95 "Hg3 mi
12:00 PM88 °FLow level haze.18 mph10%29.98 "Hg2 mi
11:00 AM84 °FLow level haze.21 mph11%30.01 "Hg2 mi
10:00 AM81 °FLow level haze.21 mph12%30.01 "Hg3 mi
9:00 AM77 °FDuststorm.14 mph13%30.01 "Hg3 mi
8:00 AM73 °FClear.9 mph15%29.98 "Hg4 mi
Weather by CustomWeather, © 2015

See weather overviewHow to use our weather pages